Location: Sternwarte ZA, Rosenfeld-Brittheim
(48.2889°N, 8.6789°E)
Time: 00:12:30
(UTC+02:00)

ISS - Visible Passes

Search period start: 26 September 2017 00:00
Search period end: 06 October 2017 00:00
Orbit: 401 x 407 km, 51.6° (Epoch: 26 September)

Date Brightness Start Highest point End Pass type
(mag) Time Alt. Az. Time Alt. Az. Time Alt. Az.
26 Sep -2.5 20:26:54 10° SSW 20:29:31 22° SE 20:29:51 22° SE visible
26 Sep -0.6 22:02:26 10° WSW 22:02:32 11° WSW 22:02:32 11° WSW visible
27 Sep -3.3 21:10:07 10° WSW 21:12:41 50° SW 21:12:41 50° SW visible
28 Sep -3.4 20:17:56 10° SW 20:21:04 43° SSE 20:22:41 23° E visible
28 Sep -1.1 21:54:17 10° W 21:55:20 19° W 21:55:20 19° W visible
29 Sep -3.8 21:01:48 10° WSW 21:05:04 72° NNW 21:05:12 71° N visible
30 Sep -3.9 20:09:23 10° WSW 20:12:40 79° SSE 20:14:57 18° ENE visible
30 Sep -1.3 21:46:07 10° W 21:47:36 23° WNW 21:47:36 23° WNW visible
01 Oct -3.3 20:53:35 10° W 20:56:47 52° NNW 20:57:16 46° NNE visible
02 Oct -3.6 20:01:03 10° W 20:04:19 65° NNW 20:06:53 15° ENE visible
02 Oct -1.5 21:37:53 10° WNW 21:39:31 25° WNW 21:39:31 25° WNW visible
03 Oct -3.1 20:45:21 10° WNW 20:48:32 44° N 20:49:05 40° NNE visible
04 Oct -3.2 19:52:47 10° W 19:55:58 49° N 19:58:36 14° ENE visible
04 Oct -1.7 21:29:33 10° WNW 21:31:15 27° NW 21:31:15 27° NW visible
05 Oct -3.2 20:37:02 10° WNW 20:40:12 45° N 20:40:45 41° NE visible
